N954LL KOXC-KTEB

Flight info

Callsign N954LL
Flight time 0h 18m
Altitude 16000
Route CMK V623 SAX
Aircraft CL60/M-SADE3FGHIJ3J4J7P2RWXY/HB1D1

Departure

Time 2026-05-09 15:20
Airport Waterbury Oxford Airport (KOXC)

Arrival

Time 2026-05-09 15:39
Airport Teterboro Airport (KTEB)
Time Latitude Longitude Altitude Speed Heading
2026-05-09 14:56 41.48151 -73.13340 715 ft 0 kts 170°
2026-05-09 15:14 41.48151 -73.13339 715 ft 0 kts 170°
2026-05-09 15:15 41.48134 -73.13340 715 ft 3 kts 200°
2026-05-09 15:15 41.48106 -73.13373 715 ft 6 kts 232°
2026-05-09 15:16 41.48096 -73.13396 715 ft 3 kts 254°
2026-05-09 15:16 41.48072 -73.13424 715 ft 6 kts 173°
2026-05-09 15:16 41.48019 -73.13412 715 ft 8 kts 171°
2026-05-09 15:16 41.47950 -73.13397 714 ft 11 kts 170°
2026-05-09 15:17 41.47877 -73.13407 713 ft 10 kts 244°
2026-05-09 15:17 41.47861 -73.13515 714 ft 13 kts 260°
2026-05-09 15:17 41.47844 -73.13641 714 ft 9 kts 249°
2026-05-09 15:17 41.47782 -73.13657 713 ft 11 kts 171°
2026-05-09 15:18 41.47687 -73.13635 711 ft 15 kts 171°
2026-05-09 15:18 41.47580 -73.13613 707 ft 15 kts 170°
2026-05-09 15:18 41.47474 -73.13590 703 ft 15 kts 171°
2026-05-09 15:18 41.47366 -73.13567 699 ft 15 kts 170°
2026-05-09 15:19 41.47256 -73.13543 693 ft 16 kts 171°
2026-05-09 15:19 41.47140 -73.13518 688 ft 16 kts 172°
2026-05-09 15:19 41.47053 -73.13496 684 ft 7 kts 151°
2026-05-09 15:19 41.47044 -73.13411 683 ft 11 kts 81°
2026-05-09 15:20 41.47060 -73.13354 683 ft 5 kts
2026-05-09 15:20 41.48119 -73.13580 739 ft 162 kts 352°
2026-05-09 15:20 41.49337 -73.13834 1378 ft 189 kts 351°
2026-05-09 15:21 41.50624 -73.14481 1889 ft 205 kts 322°
2026-05-09 15:21 41.51453 -73.15916 2322 ft 190 kts 280°
2026-05-09 15:21 41.51403 -73.17577 2946 ft 181 kts 244°
2026-05-09 15:21 41.50861 -73.19051 3700 ft 177 kts 238°
2026-05-09 15:22 41.50249 -73.20491 4459 ft 191 kts 237°
2026-05-09 15:22 41.49541 -73.22107 5402 ft 215 kts 237°
2026-05-09 15:22 41.48713 -73.23960 5864 ft 244 kts 237°
2026-05-09 15:22 41.47842 -73.25899 5990 ft 242 kts 237°
2026-05-09 15:23 41.46977 -73.27834 6006 ft 241 kts 237°
2026-05-09 15:23 41.46116 -73.29761 6006 ft 240 kts 237°
2026-05-09 15:23 41.45267 -73.31659 6005 ft 240 kts 237°
2026-05-09 15:23 41.44405 -73.33576 6003 ft 240 kts 237°
2026-05-09 15:24 41.43546 -73.35487 6004 ft 240 kts 237°
2026-05-09 15:24 41.42691 -73.37397 6004 ft 240 kts 237°
2026-05-09 15:24 41.41828 -73.39322 6002 ft 240 kts 237°
2026-05-09 15:24 41.40959 -73.41253 6000 ft 240 kts 237°
2026-05-09 15:25 41.40098 -73.43175 6001 ft 241 kts 238°
2026-05-09 15:25 41.39242 -73.45087 6002 ft 240 kts 237°
2026-05-09 15:25 41.38383 -73.47011 6002 ft 240 kts 238°
2026-05-09 15:26 41.36678 -73.50839 5999 ft 240 kts 237°
2026-05-09 15:26 41.35821 -73.52764 5997 ft 241 kts 238°
2026-05-09 15:26 41.34961 -73.54697 5998 ft 241 kts 238°
2026-05-09 15:26 41.34097 -73.56642 5951 ft 242 kts 238°
2026-05-09 15:27 41.33234 -73.58577 5721 ft 242 kts 238°
2026-05-09 15:27 41.32370 -73.60510 5468 ft 240 kts 238°
2026-05-09 15:27 41.31516 -73.62418 5220 ft 240 kts 238°
2026-05-09 15:27 41.30667 -73.64312 5009 ft 238 kts 238°
2026-05-09 15:28 41.29808 -73.66222 4983 ft 240 kts 237°
2026-05-09 15:28 41.28937 -73.68150 4987 ft 240 kts 237°
2026-05-09 15:28 41.28079 -73.70050 4990 ft 240 kts 237°
2026-05-09 15:28 41.27211 -73.71968 4988 ft 240 kts 237°
2026-05-09 15:29 41.26338 -73.73901 4990 ft 240 kts 237°
2026-05-09 15:29 41.25472 -73.75822 4988 ft 240 kts 237°
2026-05-09 15:29 41.24606 -73.77743 4987 ft 240 kts 237°
2026-05-09 15:29 41.23749 -73.79649 4985 ft 241 kts 237°
2026-05-09 15:30 41.22876 -73.81583 4985 ft 240 kts 237°
2026-05-09 15:30 41.22018 -73.83484 4984 ft 241 kts 237°
2026-05-09 15:30 41.21152 -73.85411 4950 ft 242 kts 237°
2026-05-09 15:30 41.20264 -73.87341 4718 ft 242 kts 233°
2026-05-09 15:31 41.19024 -73.88850 4459 ft 239 kts 216°
2026-05-09 15:31 41.17656 -73.90136 4203 ft 237 kts 216°
2026-05-09 15:31 41.16331 -73.91386 3962 ft 229 kts 216°
2026-05-09 15:31 41.15048 -73.92602 3728 ft 221 kts 216°
2026-05-09 15:32 41.13807 -73.93791 3482 ft 214 kts 217°
2026-05-09 15:32 41.12623 -73.94952 3237 ft 208 kts 218°
2026-05-09 15:32 41.11475 -73.96081 2990 ft 203 kts 218°
2026-05-09 15:32 41.10340 -73.97199 2745 ft 198 kts 218°
2026-05-09 15:33 41.09243 -73.98279 2495 ft 194 kts 218°
2026-05-09 15:33 41.08170 -73.99337 2254 ft 190 kts 218°
2026-05-09 15:33 41.07123 -74.00369 2024 ft 183 kts 218°
2026-05-09 15:33 41.06093 -74.01386 1882 ft 177 kts 218°
2026-05-09 15:34 41.05129 -74.02337 1893 ft 170 kts 218°
2026-05-09 15:34 41.04163 -74.03291 1889 ft 169 kts 218°
2026-05-09 15:34 41.03218 -74.04218 1888 ft 169 kts 216°
2026-05-09 15:34 41.02091 -74.04754 1783 ft 175 kts 189°
2026-05-09 15:35 41.00874 -74.04816 1614 ft 175 kts 185°
2026-05-09 15:35 40.99658 -74.04872 1482 ft 173 kts 186°
2026-05-09 15:35 40.98445 -74.04958 1489 ft 171 kts 187°
2026-05-09 15:35 40.97322 -74.05040 1481 ft 157 kts 187°
2026-05-09 15:36 40.96228 -74.05122 1478 ft 155 kts 187°
2026-05-09 15:36 40.95153 -74.05205 1479 ft 154 kts 187°
2026-05-09 15:36 40.94077 -74.05286 1487 ft 154 kts 187°
2026-05-09 15:36 40.93057 -74.05358 1510 ft 139 kts 188°
2026-05-09 15:37 40.92092 -74.05425 1297 ft 133 kts 187°
2026-05-09 15:37 40.91192 -74.05492 1124 ft 128 kts 187°
2026-05-09 15:37 40.90316 -74.05558 957 ft 123 kts 187°
2026-05-09 15:37 40.89434 -74.05629 787 ft 131 kts 187°
2026-05-09 15:38 40.88509 -74.05703 632 ft 133 kts 186°
2026-05-09 15:38 40.87580 -74.05768 461 ft 134 kts 185°
2026-05-09 15:38 40.86653 -74.05827 273 ft 132 kts 185°
2026-05-09 15:38 40.85736 -74.05901 87 ft 128 kts 184°
2026-05-09 15:39 40.84908 -74.05964 13 ft 93 kts 184°
2026-05-09 15:39 40.84535 -74.05991 12 ft 30 kts 181°
2026-05-09 15:39 40.84376 -74.06005 12 ft 19 kts 193°
2026-05-09 15:39 40.84278 -74.06097 12 ft 10 kts 231°
2026-05-09 15:40 40.84256 -74.06147 12 ft 3 kts 319°
2026-05-09 15:40 40.84284 -74.06151 12 ft 3 kts 359°
2026-05-09 15:40 40.84324 -74.06149 12 ft 7 kts
2026-05-09 15:40 40.84389 -74.06143 12 ft 11 kts
2026-05-09 15:41 40.84477 -74.06137 12 ft 14 kts
2026-05-09 15:41 40.84588 -74.06130 12 ft 17 kts
2026-05-09 15:41 40.84721 -74.06119 12 ft 20 kts
2026-05-09 15:41 40.84867 -74.06110 12 ft 15 kts